Showing default

KOYOH, 58464

Orbit data source: Space-Track

KOYOH, 58464 is a payload satellite owned by Kanazawa U (JP) in SSO that was launched on Fri, 01 Dec 2023 UTC via an FALCON 9 launch vehicle from the Air Force Western Test Range (AFWTR). Payload-class satellites include a variety of spacecraft equipped with specific instruments for various scientific and technological missions. These include communications satellites like Starlink; space stations such as the ISS; scientific satellites like the Hubble; Earth observation satellites from companies like Planet Labs, Umbra, and HawkEye 360; GPS; miniature CubeSats for education and research; and military/defense satellites.

Loading next visibility...
Identifier
58464, 2023-185C
Orbit
SSO
Last TLE update
10 hours ago
Origin
Manufacturer
Kanazawa U
Mission
Operational Amateur Technology
Bus & Motor
KOYOH, Unknown motor
Mass
43 kg wet, 43 kg dry
Launch date (UTC)
2023-12-01 (1 year ago)
Launch vehicle
FALCON 9
Launch site
Air Force Western Test Range (AFWTR)
Object type
Payload
Rocket body
Debris
Shape & HBR
Box, 0.5 m
Radar Cross Section
0.375 m², Medium (>0.1 m² and < 1m²)

Expand to show TLE details & history

TLE from 10 hours ago
0 KOYOH
1 58464U 23185C   25131.18238690  .00005665  00000-0  33037-3 0  9996
2 58464  97.5764 200.8018 0006283 250.3261 109.7291 15.12347149 79253
Epoch: 2025-05-11T04:22Z
Definitive object data (Epoch: 2025-05-11T04:22:38.228Z)
Latitude
-0.00008°
Longitude
-94.07097°
Altitude
533.587 km
Speed
7.595 km/s
True Right ascension
13h 23m 12s
True Declination
0° 00' 00"
Sunlit
Object was in full shadow at TLE epoch
Visualization TLE readout
Latitude
73.5467°
Longitude
112.95182°
Altitude
545.184 km
Speed
7.594 km/s
Apparent Right ascension
09h 05m 23s
Apparent Declination
29° 18' 15"
Sunlit
Object is in daylight
Visualization observer readout
Local Sidereal Time
22:40:01
Azimuth
21.511° NNE
Elevation
-17.371°
Doppler factor
1
Orbital elements
Apogee altitude
530.365 km
Perigee altitude
521.69 km
Semi-major axis
6,904.165 km
Eccentricity
0.0006283
Inclination
97.5764°
RAAN
200.8018°
Arg. of periapsis
250.3261°
True anomaly
109.79685°
Mean anomaly
109.7291°
Eccentric anomaly
109.76298°
Mean motion
3.78335 °/min
BSTAR
0.00033037
Orbital period
95.15 mins
Loading maneuver chart data...
Loading SW <> Apogee altitude chart data...
Loading historical data...
Loading historical data...
Loading historical data...
Loading historical data...
Loading historical data...
Loading historical data...
Loading historical data...

KOYOH Visibility forecast

Observer location: undefined°, undefined°

Span
Click to sort rows by Start time (UTC) header in descending order
Start Az.
Max El. time (UTC)
Max El. Az.
Max El.
End time (UTC)
End Az.
7 mins2025-05-11 17:38:00.478Z6.573° NNE2025-05-11 17:42:00.478Z250.771° W41.978°2025-05-11 17:45:00.478Z202.545° SW
6 mins2025-05-12 04:20:00.478Z144.966° SSE2025-05-12 04:23:00.478Z53.859° ENE37.009°2025-05-12 04:26:00.478Z0.007° NNE
|